• Em Portugal
  • Lista de países
  • Para 7 dias
  • Temperatura da água
  • Mapas de satélite
  • Mapa do tempo
  • Widgets de tempo
  • user-avatar
    Iniciar Sessão

    Previsão horária em Karbala

    Hoje, 16 Julho, Segunda-feira

    Tempo Temperatura Precipitação Vento Pressão Humidade
    00:00 +40°C° 0 mm 1 m/s 743 mmHg 16%
    01:00 +40°C° 0 mm 2 m/s 743 mmHg 16%
    02:00 +39°C° 0 mm 2 m/s 743 mmHg 17%
    03:00 +38°C° 0 mm 2 m/s 743 mmHg 18%
    04:00 +38°C° 0 mm 3 m/s 743 mmHg 19%
    05:00 +38°C° 0 mm 3 m/s 744 mmHg 20%
    06:00 +38°C° 0 mm 4 m/s 744 mmHg 22%
    07:00 +40°C° 0 mm 5 m/s 744 mmHg 21%
    08:00 +42°C° 0 mm 5 m/s 744 mmHg 20%
    09:00 +44°C° 0 mm 6 m/s 745 mmHg 20%
    10:00 +45°C° 0 mm 6 m/s 745 mmHg 18%
    11:00 +46°C° 0 mm 6 m/s 744 mmHg 16%
    12:00 +48°C° 0 mm 6 m/s 744 mmHg 14%
    13:00 +48°C° 0 mm 6 m/s 744 mmHg 13%
    14:00 +48°C° 0 mm 6 m/s 744 mmHg 11%
    15:00 +49°C° 0 mm 6 m/s 743 mmHg 10%
    16:00 +48°C° 0 mm 6 m/s 743 mmHg 10%
    17:00 +48°C° 0 mm 6 m/s 743 mmHg 10%
    18:00 +48°C° 0 mm 6 m/s 743 mmHg 10%
    19:00 +46°C° 0 mm 6 m/s 743 mmHg 12%
    20:00 +45°C° 0 mm 5 m/s 743 mmHg 13%
    21:00 +43°C° 0 mm 4 m/s 744 mmHg 14%
    22:00 +42°C° 0 mm 5 m/s 744 mmHg 15%
    23:00 +42°C° 0 mm 6 m/s 744 mmHg 15%

    Amanhã, 17 Julho, Terça-feira

    Tempo Temperatura Precipitação Vento Pressão Humidade
    00:00 +41°C° 0 mm 7 m/s 744 mmHg 16%
    01:00 +41°C° 0 mm 6 m/s 744 mmHg 16%
    02:00 +40°C° 0 mm 6 m/s 744 mmHg 16%
    03:00 +39°C° 0 mm 6 m/s 744 mmHg 16%
    04:00 +39°C° 0 mm 6 m/s 744 mmHg 17%
    05:00 +37°C° 0 mm 5 m/s 744 mmHg 18%
    06:00 +37°C° 0 mm 5 m/s 745 mmHg 19%
    07:00 +40°C° 0 mm 6 m/s 745 mmHg 18%
    08:00 +41°C° 0 mm 8 m/s 745 mmHg 16%
    09:00 +43°C° 0 mm 9 m/s 745 mmHg 15%
    10:00 +45°C° 0 mm 9 m/s 745 mmHg 13%
    11:00 +47°C° 0 mm 9 m/s 745 mmHg 12%
    12:00 +48°C° 0 mm 9 m/s 744 mmHg 11%
    13:00 +48°C° 0 mm 9 m/s 744 mmHg 10%
    14:00 +49°C° 0 mm 9 m/s 744 mmHg 10%
    15:00 +49°C° 0 mm 9 m/s 743 mmHg 9%
    16:00 +49°C° 0 mm 8 m/s 743 mmHg 9%
    17:00 +48°C° 0 mm 8 m/s 743 mmHg 9%
    18:00 +47°C° 0 mm 7 m/s 743 mmHg 9%
    19:00 +45°C° 0 mm 6 m/s 743 mmHg 10%
    20:00 +43°C° 0 mm 5 m/s 743 mmHg 10%
    21:00 +42°C° 0 mm 4 m/s 744 mmHg 11%
    22:00 +41°C° 0 mm 5 m/s 744 mmHg 12%
    23:00 +41°C° 0 mm 6 m/s 744 mmHg 13%

    Depois de amanhã, 18 Julho, Quarta-feira

    Tempo Temperatura Precipitação Vento Pressão Humidade
    00:00 +40°C° 0 mm 6 m/s 744 mmHg 13%
    01:00 +40°C° 0 mm 6 m/s 744 mmHg 14%
    02:00 +39°C° 0 mm 6 m/s 744 mmHg 15%
    03:00 +39°C° 0 mm 6 m/s 744 mmHg 16%
    04:00 +38°C° 0 mm 6 m/s 744 mmHg 18%
    05:00 +38°C° 0 mm 6 m/s 744 mmHg 19%
    06:00 +36°C° 0 mm 7 m/s 744 mmHg 21%
    07:00 +39°C° 0 mm 7 m/s 745 mmHg 20%
    08:00 +40°C° 0 mm 8 m/s 745 mmHg 19%
    09:00 +43°C° 0 mm 8 m/s 745 mmHg 19%
    10:00 +44°C° 0 mm 8 m/s 745 mmHg 16%
    11:00 +46°C° 0 mm 8 m/s 745 mmHg 13%
    12:00 +49°C° 0 mm 7 m/s 745 mmHg 10%
    13:00 +49°C° 0 mm 7 m/s 744 mmHg 9%
    14:00 +50°C° 0 mm 7 m/s 744 mmHg 8%
    15:00 +50°C° 0 mm 7 m/s 743 mmHg 7%
    16:00 +49°C° 0 mm 6 m/s 743 mmHg 8%
    17:00 +48°C° 0 mm 6 m/s 743 mmHg 8%
    18:00 +48°C° 0 mm 6 m/s 743 mmHg 8%
    19:00 +47°C° 0 mm 5 m/s 743 mmHg 9%
    20:00 +45°C° 0 mm 5 m/s 744 mmHg 10%
    21:00 +43°C° 0 mm 4 m/s 744 mmHg 11%
    22:00 +42°C° 0 mm 4 m/s 744 mmHg 12%
    23:00 +42°C° 0 mm 4 m/s 744 mmHg 13%

    19 Julho, Quinta-feira

    Tempo Temperatura Precipitação Vento Pressão Humidade
    00:00 +41°C° 0 mm 4 m/s 744 mmHg 14%
    01:00 +40°C° 0 mm 5 m/s 744 mmHg 15%
    02:00 +40°C° 0 mm 5 m/s 744 mmHg 16%
    03:00 +39°C° 0 mm 5 m/s 744 mmHg 18%
    04:00 +39°C° 0 mm 6 m/s 744 mmHg 19%
    05:00 +39°C° 0 mm 6 m/s 744 mmHg 20%
    06:00 +38°C° 0 mm 6 m/s 745 mmHg 21%
    07:00 +40°C° 0 mm 7 m/s 745 mmHg 19%
    08:00 +43°C° 0 mm 8 m/s 745 mmHg 18%
    09:00 +44°C° 0 mm 9 m/s 745 mmHg 17%
    10:00 +47°C° 0 mm 9 m/s 745 mmHg 14%
    11:00 +48°C° 0 mm 8 m/s 745 mmHg 12%
    12:00 +50°C° 0 mm 8 m/s 745 mmHg 9%
    13:00 +50°C° 0 mm 8 m/s 744 mmHg 9%
    14:00 +51°C° 0 mm 8 m/s 744 mmHg 8%
    15:00 +51°C° 0 mm 8 m/s 744 mmHg 7%
    16:00 +51°C° 0 mm 8 m/s 744 mmHg 7%
    17:00 +50°C° 0 mm 8 m/s 744 mmHg 7%
    18:00 +49°C° 0 mm 8 m/s 744 mmHg 7%
    19:00 +47°C° 0 mm 7 m/s 744 mmHg 9%
    20:00 +46°C° 0 mm 6 m/s 744 mmHg 10%
    21:00 +44°C° 0 mm 6 m/s 745 mmHg 11%
    22:00 +44°C° 0 mm 6 m/s 745 mmHg 12%
    23:00 +42°C° 0 mm 6 m/s 745 mmHg 12%

    20 Julho, Sexta-feira

    Tempo Temperatura Precipitação Vento Pressão Humidade
    00:00 +41°C° 0 mm 6 m/s 745 mmHg 13%
    01:00 +41°C° 0 mm 6 m/s 745 mmHg 14%
    02:00 +40°C° 0 mm 6 m/s 744 mmHg 15%
    03:00 +39°C° 0 mm 6 m/s 744 mmHg 16%
    04:00 +39°C° 0 mm 6 m/s 745 mmHg 17%
    05:00 +37°C° 0 mm 5 m/s 745 mmHg 19%
    06:00 +37°C° 0 mm 5 m/s 745 mmHg 21%
    07:00 +39°C° 0 mm 7 m/s 746 mmHg 18%
    08:00 +41°C° 0 mm 8 m/s 746 mmHg 16%
    09:00 +43°C° 0 mm 9 m/s 746 mmHg 14%
    10:00 +45°C° 0 mm 9 m/s 746 mmHg 12%
    11:00 +47°C° 0 mm 9 m/s 746 mmHg 10%
    12:00 +49°C° 0 mm 9 m/s 745 mmHg 9%
    13:00 +49°C° 0 mm 9 m/s 745 mmHg 8%
    14:00 +50°C° 0 mm 9 m/s 745 mmHg 8%
    15:00 +50°C° 0 mm 9 m/s 744 mmHg 7%
    16:00 +49°C° 0 mm 8 m/s 744 mmHg 7%
    17:00 +49°C° 0 mm 8 m/s 744 mmHg 7%
    18:00 +48°C° 0 mm 8 m/s 744 mmHg 7%
    19:00 +46°C° 0 mm 7 m/s 744 mmHg 8%
    20:00 +45°C° 0 mm 6 m/s 744 mmHg 9%
    21:00 +42°C° 0 mm 6 m/s 745 mmHg 10%
    22:00 +42°C° 0 mm 6 m/s 744 mmHg 11%
    23:00 +41°C° 0 mm 6 m/s 744 mmHg 12%

    21 Julho, Sábado

    Tempo Temperatura Precipitação Vento Pressão Humidade
    00:00 +40°C° 0 mm 6 m/s 744 mmHg 13%
    01:00 +40°C° 0 mm 6 m/s 744 mmHg 14%
    02:00 +39°C° 0 mm 6 m/s 744 mmHg 16%
    03:00 +38°C° 0 mm 6 m/s 744 mmHg 17%
    04:00 +38°C° 0 mm 6 m/s 744 mmHg 21%
    05:00 +38°C° 0 mm 6 m/s 745 mmHg 25%
    06:00 +36°C° 0 mm 7 m/s 745 mmHg 29%
    07:00 +39°C° 0 mm 8 m/s 745 mmHg 26%
    08:00 +40°C° 0 mm 9 m/s 746 mmHg 23%
    09:00 +42°C° 0 mm 10 m/s 746 mmHg 19%
    10:00 +44°C° 0 mm 10 m/s 746 mmHg 16%
    11:00 +45°C° 0 mm 10 m/s 745 mmHg 13%
    12:00 +48°C° 0 mm 9 m/s 745 mmHg 11%
    13:00 +48°C° 0 mm 9 m/s 745 mmHg 10%
    14:00 +49°C° 0 mm 9 m/s 744 mmHg 9%
    15:00 +49°C° 0 mm 9 m/s 744 mmHg 8%
    16:00 +49°C° 0 mm 8 m/s 744 mmHg 8%
    17:00 +49°C° 0 mm 8 m/s 744 mmHg 8%
    18:00 +47°C° 0 mm 7 m/s 743 mmHg 8%
    19:00 +46°C° 0 mm 7 m/s 744 mmHg 10%
    20:00 +44°C° 0 mm 6 m/s 744 mmHg 11%
    21:00 +42°C° 0 mm 5 m/s 744 mmHg 12%
    22:00 +41°C° 0 mm 5 m/s 744 mmHg 12%
    23:00 +40°C° 0 mm 5 m/s 744 mmHg 13%
    Mostrar mais